Temp
8 8 8 8 9 9 9 10 9 9 9 9 9 9 8 8 8 8 8 8 7 7 6 6 5 5 5 4 4 3 3 3 3 2 2 1 1 1 1 0 -0 -1 -1 -2
8 8 8 8 9 9 9 9 9 9 9 9 8 8 8 8 8 8 8 8 8 7 7 6 6 5 5 5 4 3 3 3 2 1 1 1 1 0 -1 -1 -1 -1 -2 -3
7 8 8 8 8 9 8 8 8 8 8 8 8 7 8 7 8 7 7 7 7 7 6 6 6 6 5 4 3 3 3 2 2 2 2 1 1 -0 -1 -1 -2 -2 -3 -3
8 8 8 8 8 8 8 7 7 8 8 8 8 6 5 6 6 6 6 7 7 6 6 6 5 5 5 4 3 3 3 2 2 1 1 0 -0 -1 -1 -1 -1 -2 -2 -2
7 7 7 7 7 7 7 7 7 7 7 7 7 7 4 5 6 6 6 7 6 6 6 6 5 5 4 4 3 2 2 1 1 1 1 0 -0 -1 -1 -2 -2 -3 -3 -3
7 7 7 7 7 6 6 7 7 7 7 5 6 7 4 4 6 5 5 5 5 5 5 4 4 4 3 3 2 2 1 1 1 0 -0 -1 -1 -2 -3 -3 -4 -4 -4 -5
6 6 6 6 6 6 6 7 6 4 2 3 6 6 4 5 5 5 5 4 4 4 3 3 3 3 2 2 1 1 0 -0 -1 -2 -2 -2 -2 -3 -4 -5 -5 -6 -6 -6
6 5 6 6 6 6 6 6 6 4 1 3 5 4 2 4 4 4 3 2 2 2 2 1 0 -0 -0 -0 -1 -1 -2 -2 -2 -2 -2 -2 -3 -4 -5 -5 -6 -6 -6 -7
6 5 5 6 6 6 6 6 5 5 4 3 4 3 3 3 3 3 1 1 1 1 1 0 -0 -1 -1 -1 -2 -2 -2 -3 -3 -3 -3 -3 -4 -5 -5 -6 -7 -7 -8 -9
6 5 5 5 6 6 6 5 5 5 1 3 3 4 4 3 3 2 1 1 1 1 -0 -0 -0 -1 -1 -2 -2 -2 -2 -2 -2 -3 -3 -5 -6 -6 -7 -7 -7 -8 -9 -9
6 6 5 5 5 5 5 5 5 5 4 1 -2 2 3 3 2 2 1 1 0 0 -0 -1 -1 -2 -2 -2 -2 -2 -2 -3 -3 -4 -5 -6 -7 -7 -7 -8 -8 -9 -10 -10
6 6 5 5 5 5 5 5 5 4 3 3 3 3 3 3 3 2 1 1 1 0 -0 -0 -1 -1 -1 -1 -2 -2 -3 -3 -4 -5 -6 -7 -7 -8 -9 -9 -10 -10 -10 -11
6 5 4 4 4 4 4 4 4 4 3 3 1 3 3 2 2 2 2 1 0 0 0 -1 -1 -1 -2 -2 -2 -3 -3 -4 -4 -6 -7 -8 -8 -9 -10 -10 -10 -11 -11 -11
5 5 5 5 5 5 4 4 3 3 3 3 3 3 3 2 2 2 1 1 -0 -1 -1 -1 -2 -1 -2 -2 -3 -3 -4 -5 -6 -7 -8 -9 -10 -10 -10 -11 -11 -12 -12 -12
5 5 5 4 4 4 4 4 3 3 3 2 2 2 3 2 1 1 0 -0 -1 -1 -2 -2 -2 -2 -2 -3 -4 -4 -5 -6 -8 -9 -10 -10 -10 -11 -11 -12 -13 -13 -13 -13
5 5 5 4 4 4 4 3 3 3 3 2 2 1 1 1 1 0 -0 -1 -1 -2 -2 -2 -2 -3 -3 -3 -4 -5 -7 -9 -9 -10 -10 -10 -11 -11 -12 -13 -13 -13 -13 -14
5 4 4 4 4 3 3 4 3 2 2 2 2 2 1 1 -0 -1 -1 -1 -1 -1 -2 -2 -3 -3 -3 -5 -6 -8 -9 -9 -9 -10 -10 -11 -11 -12 -13 -13 -13 -13 -14 -14
4 4 3 3 2 -3 4 4 3 2 2 2 1 1 0 -0 -0 -1 -1 -1 -2 -2 -2 -3 -3 -4 -5 -7 -8 -9 -10 -10 -10 -10 -11 -12 -12 -13 -13 -13 -13 -13 -14 -14
3 3 3 3 2 3 2 2 3 2 1 1 1 1 0 -0 -1 -1 -2 -2 -3 -3 -4 -4 -5 -6 -7 -8 -9 -9 -9 -10 -10 -11 -12 -13 -13 -13 -13 -13 -13 -14 -14 -14
2 2 2 2 1 -4 3 3 2 2 1 2 1 0 -0 -1 -2 -2 -3 -3 -4 -5 -5 -6 -7 -7 -8 -9 -9 -9 -10 -10 -11 -12 -13 -13 -13 -13 -13 -13 -14 -14 -14 -15
2 1 1 1 1 2 3 1 1 -0 1 0 -1 -1 -2 -2 -3 -3 -4 -4 -5 -5 -6 -7 -7 -8 -9 -9 -9 -10 -11 -12 -13 -13 -13 -13 -13 -13 -13 -13 -14 -15 -15 -15
2 2 2 0 -1 0 2 1 1 1 0 -1 -2 -2 -3 -3 -3 -4 -5 -5 -5 -6 -7 -7 -8 -8 -9 -9 -10 -11 -12 -12 -13 -13 -13 -13 -13 -13 -14 -14 -14 -14 -15 -15
1 2 2 2 3 2 1 1 -0 -0 -1 -2 -3 -3 -3 -4 -4 -5 -5 -6 -6 -7 -7 -8 -8 -9 -10 -10 -10 -11 -12 -12 -13 -13 -13 -13 -13 -14 -14 -14 -15 -15 -15 -15
2 1 1 1 2 1 0 -0 -1 -2 -2 -2 -3 -3 -4 -4 -5 -5 -6 -7 -7 -8 -8 -9 -9 -9 -10 -11 -11 -11 -12 -12 -13 -13 -13 -13 -13 -14 -14 -15 -15 -15 -15 -15
1 1 1 0 -0 -0 -1 -1 -2 -2 -2 -3 -3 -4 -3 -4 -5 -7 -7 -7 -8 -8 -9 -9 -9 -10 -10 -11 -11 -12 -12 -12 -13 -13 -13 -14 -14 -14 -15 -15 -15 -15 -15 -15
1 1 0 0 -1 -1 -1 -1 -2 -2 -3 -3 -4 -4 -5 -6 -7 -7 -8 -8 -8 -9 -9 -9 -10 -10 -11 -11 -11 -12 -12 -12 -13 -13 -14 -14 -14 -15 -15 -15 -15 -15 -15 -15
Height
3151 3153 3154 3154 3155 3156 3156 3152 3151 3157 3160 3162 3161 3160 3161 3163 3165 3165 3166 3165 3165 3165 3166 3167 3168 3170 3172 3172 3172 3171 3170 3169 3167 3165 3163 3161 3159 3156 3153 3150 3147 3145 3142 3138
3152 3152 3154 3154 3154 3155 3155 3155 3157 3158 3159 3160 3160 3161 3161 3162 3163 3163 3162 3162 3163 3164 3165 3166 3169 3170 3171 3171 3168 3167 3166 3164 3162 3161 3160 3159 3156 3152 3148 3146 3144 3140 3136 3131
3150 3152 3153 3154 3154 3155 3154 3155 3156 3158 3158 3160 3159 3161 3160 3160 3160 3160 3161 3161 3161 3163 3164 3165 3167 3168 3169 3168 3168 3167 3164 3161 3160 3159 3157 3154 3152 3149 3146 3141 3137 3133 3128 3122
3150 3151 3152 3152 3154 3154 3153 3154 3155 3155 3155 3156 3157 3161 3159 3157 3158 3160 3159 3160 3161 3162 3165 3166 3166 3166 3166 3165 3164 3164 3162 3160 3157 3154 3152 3150 3146 3143 3140 3136 3130 3124 3118 3112
3150 3150 3151 3152 3152 3152 3153 3152 3152 3152 3152 3153 3154 3157 3162 3160 3157 3157 3159 3160 3161 3163 3163 3164 3164 3165 3165 3163 3160 3158 3157 3153 3149 3146 3142 3138 3135 3131 3127 3122 3117 3112 3108 3102
3149 3150 3151 3150 3151 3150 3150 3151 3151 3151 3152 3153 3153 3153 3161 3159 3158 3158 3158 3158 3159 3160 3162 3164 3163 3162 3161 3159 3156 3152 3146 3143 3139 3137 3135 3132 3128 3123 3118 3113 3108 3104 3099 3092
3149 3149 3149 3149 3150 3150 3149 3149 3150 3154 3155 3155 3154 3154 3156 3158 3158 3158 3157 3157 3157 3158 3160 3159 3158 3156 3153 3152 3149 3146 3142 3138 3134 3131 3127 3123 3119 3114 3108 3102 3098 3093 3086 3079
3147 3150 3149 3149 3150 3150 3150 3150 3150 3155 3158 3154 3153 3155 3157 3156 3156 3157 3157 3156 3156 3156 3154 3152 3150 3147 3146 3145 3143 3141 3138 3135 3131 3126 3121 3116 3111 3105 3098 3092 3087 3081 3075 3068
3147 3149 3149 3149 3149 3151 3150 3150 3152 3152 3154 3154 3156 3158 3159 3158 3158 3157 3155 3155 3156 3153 3151 3149 3148 3146 3144 3141 3139 3136 3132 3128 3123 3118 3113 3108 3102 3096 3090 3085 3079 3073 3067 3059
3145 3147 3149 3149 3149 3149 3150 3152 3152 3151 3155 3156 3155 3156 3155 3155 3154 3153 3152 3152 3152 3150 3150 3148 3146 3144 3142 3138 3134 3131 3128 3122 3117 3111 3106 3100 3093 3087 3081 3075 3069 3063 3057 3051
3143 3145 3149 3149 3149 3150 3151 3151 3151 3152 3152 3153 3158 3155 3153 3153 3152 3151 3150 3149 3149 3148 3147 3145 3144 3141 3137 3134 3130 3125 3119 3114 3109 3103 3097 3091 3086 3080 3072 3065 3058 3052 3047 3042
3142 3144 3146 3149 3149 3149 3149 3149 3151 3151 3153 3152 3152 3152 3150 3152 3151 3149 3149 3148 3148 3147 3144 3141 3139 3137 3134 3129 3124 3119 3112 3106 3100 3095 3089 3083 3076 3069 3062 3055 3050 3044 3037 3033
3141 3143 3145 3148 3150 3149 3148 3149 3149 3149 3150 3150 3152 3149 3149 3148 3146 3145 3143 3142 3140 3140 3139 3138 3135 3132 3126 3120 3114 3109 3104 3098 3093 3088 3081 3074 3067 3061 3054 3046 3040 3035 3028 3021
3140 3140 3142 3143 3143 3145 3146 3146 3146 3146 3146 3145 3145 3145 3146 3143 3141 3140 3138 3137 3136 3135 3134 3131 3127 3122 3116 3112 3107 3102 3095 3090 3085 3079 3072 3066 3059 3053 3045 3038 3030 3023 3018 3011
3139 3139 3140 3141 3141 3142 3143 3143 3143 3142 3142 3142 3140 3139 3139 3137 3136 3135 3134 3133 3131 3129 3126 3123 3119 3114 3109 3103 3098 3092 3087 3081 3075 3069 3063 3057 3051 3041 3032 3025 3019 3012 3005 3000
3137 3137 3138 3139 3139 3139 3139 3139 3137 3138 3137 3137 3135 3134 3132 3133 3133 3132 3130 3129 3127 3124 3119 3115 3109 3104 3100 3094 3090 3084 3078 3072 3067 3061 3055 3048 3040 3030 3022 3015 3008 3001 2994 2989
3135 3136 3137 3137 3136 3137 3136 3133 3133 3133 3133 3132 3131 3130 3128 3128 3128 3127 3125 3123 3120 3116 3112 3107 3102 3098 3093 3088 3082 3075 3070 3064 3059 3052 3045 3037 3029 3021 3013 3006 2999 2992 2986 2981
3132 3133 3134 3133 3134 3135 3128 3129 3129 3130 3128 3126 3125 3124 3124 3124 3123 3122 3119 3116 3112 3109 3105 3100 3096 3092 3086 3079 3073 3068 3062 3055 3048 3042 3035 3027 3019 3012 3005 2997 2991 2986 2981 2979
3130 3130 3131 3131 3129 3127 3125 3124 3125 3124 3125 3122 3122 3121 3119 3118 3117 3115 3112 3109 3106 3101 3097 3092 3087 3083 3077 3072 3066 3060 3053 3047 3040 3032 3024 3017 3010 3004 2997 2990 2985 2980 2977 2974
3125 3126 3128 3126 3125 3123 3118 3119 3120 3120 3118 3118 3119 3117 3115 3113 3110 3109 3104 3100 3097 3092 3087 3083 3080 3076 3070 3064 3059 3052 3045 3038 3030 3023 3016 3008 3002 2996 2990 2984 2979 2975 2972 2969
3120 3121 3121 3121 3121 3116 3114 3115 3116 3117 3117 3112 3112 3111 3109 3108 3106 3101 3096 3093 3088 3084 3081 3078 3073 3068 3062 3055 3049 3042 3035 3028 3021 3014 3007 3000 2995 2989 2983 2978 2974 2971 2967 2964
3117 3117 3116 3116 3116 3112 3109 3109 3111 3111 3107 3105 3104 3103 3101 3099 3095 3091 3088 3084 3081 3078 3075 3070 3064 3059 3052 3046 3039 3032 3026 3020 3014 3007 2999 2993 2988 2983 2978 2973 2970 2966 2963 2959
3112 3111 3112 3112 3108 3105 3104 3103 3102 3101 3100 3099 3097 3096 3092 3090 3086 3083 3080 3077 3075 3072 3067 3061 3056 3049 3043 3036 3030 3024 3018 3012 3006 3000 2992 2986 2982 2977 2972 2969 2966 2963 2959 2955
3105 3105 3104 3103 3102 3101 3098 3096 3095 3094 3093 3091 3090 3087 3084 3081 3077 3075 3073 3072 3068 3063 3059 3053 3047 3041 3036 3029 3022 3016 3010 3005 2999 2993 2987 2981 2976 2972 2968 2964 2961 2958 2955 2951
3102 3099 3098 3094 3094 3094 3092 3091 3090 3088 3086 3084 3081 3079 3076 3074 3071 3070 3067 3064 3060 3055 3050 3045 3040 3033 3028 3022 3016 3009 3003 2997 2991 2986 2980 2975 2970 2966 2963 2960 2957 2954 2951 2948
3095 3094 3091 3087 3089 3086 3086 3085 3082 3080 3078 3076 3073 3070 3068 3066 3065 3063 3060 3056 3052 3047 3042 3037 3032 3026 3021 3015 3009 3002 2996 2989 2984 2978 2973 2969 2965 2961 2958 2955 2952 2949 2946 2943
Wind_Speed
12 5 5 4 6 4 2 8 13 18 14 13 7 3 15 15 17 17 18 18 23 21 25 26 28 24 22 21 21 22 24 25 20 15 17 19 23 26 29 32 32 34 35 37
4 7 9 8 6 6 7 14 15 14 14 5 3 11 18 19 18 15 15 14 17 23 27 28 25 22 22 21 27 22 22 16 14 16 19 21 23 26 27 29 32 36 38 39
7 10 9 8 6 9 7 14 15 7 4 1 2 13 15 13 17 16 14 12 14 22 25 26 24 25 26 21 14 18 18 18 21 24 27 28 27 27 30 32 34 35 37 41
8 8 8 8 5 4 4 3 1 4 7 2 3 6 17 19 17 17 17 17 18 20 19 19 19 21 17 16 18 18 20 23 25 28 26 24 26 26 27 30 35 38 41 44
8 8 8 4 2 2 2 3 2 5 3 2 4 6 16 18 18 18 17 19 19 17 18 20 19 16 18 22 24 24 24 28 27 28 29 31 34 36 39 42 41 41 41 42
7 2 4 3 4 7 2 2 3 4 3 2 8 7 24 21 18 15 13 13 14 18 17 14 12 14 15 18 17 24 27 30 33 35 35 37 37 41 46 44 43 42 43 46
7 3 5 4 8 7 3 2 2 3 2 3 4 4 5 18 19 18 20 18 17 15 16 16 18 24 24 21 25 31 33 35 38 43 44 44 43 45 49 47 44 46 43 43
6 3 2 4 6 4 6 7 4 4 2 3 1 5 6 10 19 18 14 13 6 15 18 19 16 19 20 25 26 31 33 35 39 46 46 45 45 45 44 44 49 45 44 46
8 5 4 6 6 6 4 7 6 4 2 1 4 11 9 8 10 11 15 18 8 10 14 14 15 18 21 22 25 29 34 39 46 46 43 44 43 43 45 46 44 43 43 45
10 8 7 10 10 8 7 7 2 3 2 1 2 6 6 12 8 10 7 12 13 13 12 15 18 20 23 27 28 33 42 41 42 42 44 42 41 44 46 47 45 44 42 49
12 6 10 7 5 6 6 4 3 2 1 4 2 3 3 13 13 14 12 10 7 12 15 16 22 25 30 31 34 44 45 42 43 42 41 41 44 45 46 48 48 48 49 50
11 10 10 7 4 5 4 4 3 2 3 3 1 4 5 4 12 17 11 15 18 22 26 31 24 27 34 39 42 46 40 42 42 40 40 42 45 47 49 50 51 54 46 47
14 10 10 5 5 6 4 5 4 5 7 9 4 4 8 9 15 20 21 24 25 25 28 24 26 31 37 41 42 41 41 41 40 39 40 43 46 48 49 54 55 52 39 42
14 16 9 10 6 7 8 9 8 8 8 12 19 17 16 21 22 21 21 21 22 23 24 27 30 38 38 39 40 39 40 39 40 41 43 45 46 47 49 57 55 46 42 47
12 13 11 10 10 10 12 11 11 14 16 12 18 17 17 18 18 19 20 21 23 24 25 30 37 39 38 37 39 42 40 42 43 45 45 43 47 52 55 42 45 49 50 46
14 10 14 12 13 12 11 12 10 7 8 10 10 11 15 18 18 18 20 22 24 28 32 36 39 37 37 41 41 40 41 41 43 44 45 50 54 50 43 42 45 47 47 45
11 11 11 7 12 11 13 13 11 9 11 16 21 24 24 22 20 20 22 26 26 32 37 38 36 39 39 38 38 39 39 43 47 49 51 51 42 44 44 44 41 38 36 33
11 10 9 5 7 1 8 10 9 11 12 17 18 19 19 20 23 26 29 29 32 37 37 36 35 36 34 36 37 39 43 46 48 48 42 41 42 43 41 41 36 31 24 20
16 13 8 5 8 10 10 16 12 9 13 19 20 22 23 25 27 26 28 34 36 34 32 33 32 32 34 36 39 42 45 46 42 40 39 40 42 41 39 38 33 28 22 29
18 17 16 10 5 6 8 13 13 12 20 9 11 17 20 21 26 31 37 35 34 30 31 31 30 34 36 37 40 43 41 40 40 40 41 42 41 39 38 34 30 28 27 21
16 17 20 19 11 10 15 16 15 10 12 16 19 17 20 26 30 30 32 35 32 29 30 30 33 34 36 40 41 40 38 38 39 42 42 40 38 37 33 29 23 18 18 21
11 10 14 14 10 12 15 17 18 19 25 24 24 22 25 30 29 32 33 28 27 27 28 32 34 36 38 39 39 38 38 39 39 37 37 35 34 33 28 22 19 18 19 21
17 21 15 16 10 15 21 25 25 26 26 28 25 26 28 30 33 31 29 27 25 26 30 32 35 37 37 38 38 40 39 38 36 35 35 34 32 27 23 21 19 18 18 21
21 20 22 24 26 26 25 27 25 26 28 28 28 30 32 30 31 31 23 22 25 28 30 32 35 36 36 36 38 38 37 37 35 33 33 32 28 24 21 21 19 18 19 21
20 19 25 30 31 31 29 27 26 30 31 29 32 33 32 37 31 21 20 24 27 29 31 34 35 35 34 36 37 35 36 37 35 32 32 29 26 23 22 20 18 18 18 19
26 27 31 35 30 33 35 34 31 28 28 30 32 38 35 26 19 20 23 28 29 31 33 34 33 33 33 35 37 36 36 35 32 31 30 27 23 22 21 20 19 19 19 19
Wind_Direction
157 166 211 212 206 190 87 357 184 180 186 219 222 132 179 190 199 215 216 216 221 220 215 209 210 220 230 244 246 258 274 282 289 297 302 304 300 300 294 294 295 296 294 290
198 205 170 171 218 223 105 128 134 158 181 197 171 149 177 194 206 216 225 222 226 229 216 216 231 244 250 260 272 275 279 286 293 295 293 292 291 288 286 286 287 292 297 298
211 167 169 184 194 221 144 145 161 179 210 257 199 143 193 189 195 192 191 202 211 215 213 213 231 249 263 276 258 255 265 277 287 292 297 297 294 293 296 299 298 297 294 291
145 155 164 199 205 192 177 102 331 297 300 193 81 129 148 169 177 181 185 198 207 203 213 232 250 271 284 278 273 275 285 290 292 295 295 293 290 287 289 292 292 292 293 295
140 155 182 212 176 293 286 279 350 52 18 309 57 144 160 176 187 198 213 223 227 232 242 258 275 298 307 300 291 294 297 303 305 307 307 309 307 308 313 312 312 309 307 304
136 161 246 220 122 97 134 181 208 259 303 53 37 146 173 173 195 197 219 237 248 254 254 273 269 291 305 323 324 327 323 320 319 319 316 319 313 314 319 315 313 311 308 304
143 84 83 125 141 87 56 60 60 48 25 198 79 111 175 197 208 231 231 234 245 260 279 287 284 312 329 332 330 328 324 321 319 320 318 317 317 315 315 311 310 313 309 307
157 154 77 74 166 114 61 63 119 154 167 281 44 105 81 199 199 195 203 209 246 292 300 301 304 304 307 317 318 321 315 309 308 313 315 317 315 313 309 309 310 310 310 312
160 123 104 98 131 166 107 80 83 108 101 101 103 117 136 165 195 223 235 255 256 250 264 276 284 297 298 302 306 307 306 307 313 314 314 312 310 305 303 305 307 314 307 319
157 128 117 138 111 101 120 122 125 60 92 110 39 176 225 211 249 210 202 215 244 245 259 273 273 282 287 291 305 304 310 308 313 312 310 307 307 309 310 310 311 316 311 317
166 161 155 156 139 138 150 128 103 111 124 159 149 194 157 223 197 217 235 227 232 258 251 261 280 288 293 294 294 303 313 313 312 313 311 310 310 311 313 318 320 319 314 314
174 154 148 146 142 157 167 186 178 149 196 164 215 244 203 236 251 235 238 261 269 274 274 279 284 292 300 297 294 304 312 314 314 312 314 315 314 316 321 319 316 314 314 315
176 167 136 158 175 173 179 190 249 247 226 225 181 237 211 250 253 259 269 266 262 269 271 281 293 295 296 301 309 312 312 309 312 322 320 317 319 318 313 313 312 314 313 306
187 182 203 189 168 178 193 207 242 249 239 253 242 260 257 255 265 263 273 278 270 270 276 281 296 312 312 310 309 308 308 318 320 321 323 322 315 304 306 309 309 307 303 310
199 201 203 194 207 223 239 246 247 252 259 261 280 273 267 247 251 262 268 264 262 267 276 291 305 310 311 310 310 313 318 322 324 321 319 309 306 309 310 308 304 302 304 304
210 216 210 218 234 243 242 267 249 228 238 238 260 267 243 242 252 261 256 254 264 274 290 306 312 311 311 312 315 317 322 320 314 312 309 310 313 311 312 313 310 307 308 309
220 221 212 233 235 239 271 220 220 224 243 253 257 265 278 271 270 273 279 287 288 299 305 309 307 311 312 313 320 322 315 310 310 311 312 313 310 316 320 318 317 315 315 316
239 230 220 242 218 270 227 212 258 267 264 273 271 269 264 265 270 279 287 292 297 306 306 303 304 309 318 321 320 315 312 311 313 315 314 314 319 320 322 323 324 322 323 322
244 236 231 235 223 263 231 236 255 248 271 267 269 271 275 279 283 283 288 297 298 305 300 299 312 320 320 319 316 313 312 315 315 315 319 319 318 321 323 322 322 321 315 322
240 236 228 223 222 220 232 223 233 262 279 282 287 288 280 282 289 291 298 299 305 303 307 315 316 316 319 313 312 313 314 315 318 321 319 318 318 321 322 321 315 311 316 322
231 229 228 237 241 254 263 238 235 252 305 304 309 291 278 279 292 297 307 304 298 299 306 309 314 318 314 313 315 317 320 321 317 316 317 315 317 320 319 319 317 316 315 319
246 235 234 231 236 259 243 226 241 292 302 308 311 299 289 292 295 303 307 296 297 303 307 314 317 314 314 317 321 321 319 318 319 319 317 316 318 316 317 315 312 317 321 318
241 253 258 247 257 267 283 287 291 300 302 304 302 297 295 299 294 302 301 296 303 306 315 315 314 315 317 321 321 319 321 322 322 321 322 318 316 315 315 312 311 313 314 318
262 251 248 261 272 278 281 287 287 286 294 294 294 294 296 289 307 310 301 301 306 314 312 315 317 317 320 321 321 322 323 325 323 320 317 316 315 313 311 309 308 311 314 318
270 263 266 267 268 275 274 279 280 286 288 289 292 293 291 296 301 300 299 306 313 314 315 316 318 319 320 322 322 322 322 320 320 317 315 315 314 312 310 306 304 306 311 317
274 277 273 278 278 276 279 280 284 286 287 285 288 294 298 299 298 296 303 312 315 313 314 316 318 318 319 323 326 322 322 321 319 316 316 313 310 308 307 305 302 306 312 316